Regional Weather Roundup
Issued by NWS

Home | Current Version | Previous Version | Graphics & Text | Print | Product List | Glossary On
Versions: 1 2 3 4 5 6 7 8 9 10 11 12 13 14 15 16 17 18 19 20 21 22 23 24 25 26 27 28 29 30 31 32 33 34 35 36 37 38 39 40 41 42 43 44 45 46 47 48 49 50
000
ASUS43 KBIS 012210
RWRND

NORTH DAKOTA REGIONAL WEATHER ROUNDUP
NATIONAL WEATHER SERVICE BISMARCK ND
500 PM CDT TUE SEP 01 2015

NOTE: "FAIR" INDICATES FEW OR NO CLOUDS BELOW 12,000 FEET WITH NO
SIGNIFICANT WEATHER AND/OR OBSTRUCTIONS TO VISIBILITY.


NDZ001>003-009>011-017-012300-
NORTHWEST NORTH DAKOTA

CITY           SKY/WX    TMP DP  RH WIND       PRES   REMARKS
WILLISTON      SUNNY     93  45  19 SW12      29.73F
MINOT          SUNNY     89  52  28 S17       29.75F
$$

NDZ018>021-031>035-040>046-012300-
SOUTHWEST NORTH DAKOTA

CITY           SKY/WX    TMP DP  RH WIND       PRES   REMARKS
BISMARCK       SUNNY     88  62  41 SE8       29.78F
DICKINSON      SUNNY     88  55  32 SE13      29.78F
GARRISON         N/A     89  57  33 S12       29.78F
HETTINGER ARPT SUNNY     88  55  32 SE8       29.81F
$$

NDZ004>008-012>016-024-026-027-054-012300-
NORTHEAST NORTH DAKOTA

CITY           SKY/WX    TMP DP  RH WIND       PRES   REMARKS
GRAND FORKS    MOSUNNY   88  52  29 S13       29.81F
GRND FRKS AFB  SUNNY     87  50  28 S10       29.82F
DEVILS LAKE    SUNNY     84  52  32 SE14      29.81S
$$

NDZ022-023-025-028>030-036>039-047>053-012300-
SOUTHEAST NORTH DAKOTA

CITY           SKY/WX    TMP DP  RH WIND       PRES   REMARKS
FARGO          MOSUNNY   89  51  27 E13G18    29.81F
JAMESTOWN      SUNNY     86  64  47 SE10      29.81F
$$



USA.gov is the U.S. government's official web portal to all federal, state and local government web resources and services.